Location: Newark
(3.0500°N, 36.0167°E)
Time: 00:28:17
(UTC+00:00)

A-11 Canister half - Pass Details

Date: 25 August 2019
Orbit: 1527 x 1682 km, 47.3° (Epoch: 17 September)

Event Time Altitude Azimuth Distance (km) Brightness Sun altitude
Rises 05:18:21 0° 213° (SSW) 4,702 11.2 25.2°
Reaches altitude 10° 05:21:24 10° 210° (SSW) 3,732 10.7 25.9°
Maximum altitude 05:30:47 67° 129° (SE) 1,693 10.0 28.2°
Drops below altitude 10° 05:40:27 10° 48° (NE) 3,846 12.1 30.6°
Sets 05:43:38 0° 46° (NE) 4,851 12.4 31.4°
